Printer-friendly version

IAU Minor Planet Center

Minor Planet Center

MPEC 2006-K19 : 2006 KE

The following Minor Planet Electronic Circular may be linked-to from your own Web pages, but must not otherwise be redistributed electronically.


Read MPEC 2006-K18 Read MPEC 2006-K20


M.P.E.C. 2006-K19                                Issued 2006 May 19, 21:18 UT

     The Minor Planet Electronic Circulars contain information on unusual
         minor planets and routine data on comets.  They are published
   on behalf of Commission 20 of the International Astronomical Union by the
          Minor Planet Center, Smithsonian Astrophysical Observatory,
                          Cambridge, MA 02138, U.S.A.

                  Supported in part by the Brinson Foundation
                  Supported in part by the TABASGO Foundation
             Prepared using the Tamkin Foundation Computer Network

                              MPC@CFA.HARVARD.EDU
          URL http://cfa-www.harvard.edu/iau/mpc.html  ISSN 1523-6714

                                    2006 KE

Observations:
     K06K00E* C2006 05 18.19660 14 14 11.67 -15 55 06.3          19.6 R EK019644
     K06K00E  C2006 05 18.21715 14 14 10.48 -15 54 10.4          19.8 R EK019644
     K06K00E  C2006 05 18.23794 14 14 09.26 -15 53 13.1          19.4 R EK019644
     K06K00E  C2006 05 19.26652 14 13 17.42 -15 05 42.6                 EK019703
     K06K00E  C2006 05 19.27522 14 13 16.96 -15 05 17.6                 EK019703
     K06K00E  C2006 05 19.28388 14 13 16.45 -15 04 53.9                 EK019703
     K06K00E  C2006 05 19.51715 14 13 05.01 -14 53 37.2          18.7 R EK019474
     K06K00E  C2006 05 19.51967 14 13 04.91 -14 53 30.7          18.9 R EK019474
     K06K00E  C2006 05 19.52218 14 13 04.77 -14 53 23.1          18.7 R EK019474
     K06K00E  C2006 05 19.52470 14 13 04.62 -14 53 15.9          18.4 R EK019474

Observer details:
474 Mount John Observatory, Lake Tekapo.  Observer A. C. Gilmore.  0.6-m f/6.4
    reflector + CCD.
644 Palomar Mountain/NEAT.  Observers M. Brown, R. Bambery, K. Lawrence,
    M. Hicks, E. Helin, R. Thicksten.  1.2-m Schmidt + CCD.
703 Catalina Sky Survey.  Observer R. A. Kowalski.  Measurers E. C. Beshore,
    E. J. Christensen, G. J. Garradd, A. R. Gibbs, A. D. Grauer, R. E. Hill,
    R. A. Kowalski, S. M. Larson, R. H. McNaught.  0.68-m Schmidt + CCD.

Orbital elements:
2006 KE                                                  Earth MOID = 0.2687 AU
Epoch 2006 Mar. 6.0 TT = JDT 2453800.5                  MPC
M 291.98728              (2000.0)            P               Q
n   0.41431794     Peri.   72.00090     +0.53752788     +0.80460352
a   1.7820240      Node   233.19238     -0.84236647     +0.49869608
e   0.3629151      Incl.   18.37119     -0.03850353     +0.32235911
P   2.38           H   19.4           G   0.15           U   9
Residuals in seconds of arc
060518 644  0.0   0.3+    060519 703  0.2+  0.4+    060519 474  0.2+  0.1+
060518 644  0.1+  0.2-    060519 703  0.1-  0.1-    060519 474  0.0   0.3+
060518 644  0.0   0.1-    060519 474  0.3-  0.1+
060519 703  0.3-  0.3-    060519 474  0.2+  0.5-

Ephemeris:
2006 KE                  a,e,i = 1.78, 0.36, 18                  q = 1.1353
Date    TT    R. A. (2000) Decl.     Delta      r     Elong.  Phase     V
2006 05 15    14 17.05   -18 18.8    0.425    1.423   163.6    11.6    19.0
2006 05 25    14 09.22   -10 34.5    0.401    1.375   150.1    21.6    19.2
2006 06 04    14 05.78   -02 46.5    0.396    1.329   136.3    31.8    19.4
2006 06 14    14 07.86   +04 10.6    0.404    1.286   124.0    40.9    19.6
2006 06 24    14 15.44   +09 51.8    0.420    1.246   113.7    48.3    19.8
2006 07 04    14 28.16   +14 15.5    0.439    1.211   105.7    53.9    20.0
2006 07 14    14 45.39   +17 33.0    0.458    1.182    99.5    58.0    20.2
2006 07 24    15 06.52   +19 55.8    0.474    1.159    95.2    60.8    20.3
2006 08 03    15 31.27   +21 32.5    0.487    1.144    92.4    62.4    20.4
2006 08 13    15 59.39   +22 29.4    0.497    1.136    91.0    63.1    20.4
2006 08 23    16 30.78   +22 47.7    0.504    1.137    90.9    62.8    20.4
2006 09 02    17 05.51   +22 27.1    0.510    1.146    91.9    61.7    20.4
2006 09 12    17 43.40   +21 27.2    0.517    1.163    93.9    59.7    20.4
2006 09 22    18 23.97   +19 48.4    0.529    1.187    96.5    57.2    20.5
2006 10 02    19 06.42   +17 36.7    0.548    1.217    99.3    54.3    20.5
2006 10 12    19 49.45   +15 05.1    0.580    1.253   101.8    51.2    20.6
2006 10 22    20 31.65   +12 30.0    0.625    1.293   103.5    48.5    20.8
2006 11 01    21 11.92   +10 09.2    0.687    1.337   104.0    46.1    21.0
2006 11 11    21 49.51   +08 15.2    0.764    1.383   103.3    44.1    21.2
2006 11 21    22 24.19   +06 53.2    0.857    1.432   101.6    42.5    21.5
2006 12 01    22 56.11   +06 03.5    0.963    1.481    98.9    41.1    21.8

Timothy B. Spahr             (C) Copyright 2006 MPC           M.P.E.C. 2006-K19

Read MPEC 2006-K18 Read MPEC 2006-K20


Our Web policy. Index to the CBAT/MPC/ICQ pages.


Valid HTML 4.01!